Overview Statistics Trail Chart Weather Telemetry Raw packets
 

This is the latest recevied weather packets stored in our database for station/object K5GHS-1. If no packets are shown the sender has not sent any weather packets the latest 10 day(s).

<< 24 25 26 27 28 29 30 >>
Time Temp. Humidity Pressure Rain* Wind** Luminosity Snow
1788540330 33.33° C 59% 1013.6 hPa 0 mm - 700 W/m² -
1788540026 32.78° C 59% 1013.6 hPa 0 mm - 667 W/m² -
1788539725 33.33° C 58% 1013.5 hPa 0 mm - 661 W/m² -
1788539421 32.78° C 60% 1013.8 hPa 0 mm - 673 W/m² -
1788539115 32.78° C 60% 1013.8 hPa 0 mm - 666 W/m² -
1788538811 32.78° C 60% 1013.7 hPa 0 mm - 643 W/m² -
1788538506 32.78° C 61% 1013.9 hPa 0 mm - 685 W/m² -
1788538201 32.78° C 60% 1013.7 hPa 0 mm - 680 W/m² -
1788537895 32.22° C 63% 1013.9 hPa 0 mm - 686 W/m² -
1788537591 32.78° C 63% 1013.7 hPa 0 mm - 642 W/m² -
1788537291 32.22° C 63% 1013.7 hPa 0 mm - 629 W/m² -
1788536990 31.67° C 66% 1013.7 hPa 0 mm - 470 W/m² -
1788536684 31.67° C 68% 1013.7 hPa 0 mm - 573 W/m² -
1788536379 31.67° C 67% 1013.8 hPa 0 mm - 573 W/m² -
1788536074 31.67° C 67% 1013.5 hPa 0 mm - 557 W/m² -
1788535771 31.11° C 69% 1013.5 hPa 0 mm - 532 W/m² -
1788535466 30.56° C 70% 1013.6 hPa 0 mm - 467 W/m² -
1788535165 30.56° C 72% 1013.7 hPa 0 mm - 462 W/m² -
1788534861 30.56° C 73% 1013.5 hPa 0 mm - 426 W/m² -
1788534556 30.56° C 75% 1013.6 hPa 0 mm - 405 W/m² -
1788534251 30.56° C 75% 1013.4 hPa 0 mm - 146 W/m² -
1788533948 30° C 75% 1013.7 hPa 0 mm - 345 W/m² -
1788533645 30° C 77% 1013.6 hPa 0 mm - 343 W/m² -
1788533340 29.44° C 79% 1013.7 hPa 0 mm - 321 W/m² -
1788533036 29.44° C 78% 1013.5 hPa 0 mm - 87 W/m² -

* Rain latest hour (hover to see other rain measurements)
** Current wind speed in m/s (hover to see current wind gust speed)